owner,sensor,date,latitude,longitude,sea_surface_height_above_sea_level,qcFlag 
COMPS,ioos:station:USF.COMPS:ARP:1,2017-04-01T00:00:00Z,28.4330,-82.6670,-9.92,1111122 
COMPS,ioos:station:USF.COMPS:ARP:1,2017-04-01T00:06:00Z,28.4330,-82.6670,-9.937,1111122 
COMPS,ioos:station:USF.COMPS:ARP:1,2017-04-01T00:12:00Z,28.4330,-82.6670,-9.956,1111122 
COMPS,ioos:station:USF.COMPS:ARP:1,2017-04-01T00:18:00Z,28.4330,-82.6670,-9.976,1111122 
COMPS,ioos:station:USF.COMPS:ARP:1,2017-04-01T00:24:00Z,28.4330,-82.6670,-9.996,1111122 
COMPS,ioos:station:USF.COMPS:ARP:1,2017-04-01T06:48:00Z,28.4330,-82.6670,-9.994,1111122 
COMPS,ioos:station:USF.COMPS:ARP:1,2017-04-01T06:54:00Z,28.4330,-82.6670,-9.97,1111122 
COMPS,ioos:station:USF.COMPS:ARP:1,2017-04-01T07:00:00Z,28.4330,-82.6670,-9.946,1111122 
COMPS,ioos:station:USF.COMPS:ARP:1,2017-04-01T07:06:00Z,28.4330,-82.6670,-9.924,1111122 
COMPS,ioos:station:USF.COMPS:ARP:1,2017-04-01T07:12:00Z,28.4330,-82.6670,-9.904,1111122 
COMPS,ioos:station:USF.COMPS:ARP:1,2017-04-01T07:18:00Z,28.4330,-82.6670,-9.885,1111122 
COMPS,ioos:station:USF.COMPS:ARP:1,2017-04-01T07:24:00Z,28.4330,-82.6670,-9.865,1111122 
COMPS,ioos:station:USF.COMPS:ARP:1,2017-04-01T07:30:00Z,28.4330,-82.6670,-9.846,1111122 
COMPS,ioos:station:USF.COMPS:ARP:1,2017-04-01T07:36:00Z,28.4330,-82.6670,-9.827,1111122 
COMPS,ioos:station:USF.COMPS:ARP:1,2017-04-01T07:42:00Z,28.4330,-82.6670,-9.809,1111122 
COMPS,ioos:station:USF.COMPS:ARP:1,2017-04-01T07:48:00Z,28.4330,-82.6670,-9.792,1111122 
COMPS,ioos:station:USF.COMPS:ARP:1,2017-04-01T07:54:00Z,28.4330,-82.6670,-9.778,1111122 
COMPS,ioos:station:USF.COMPS:ARP:1,2017-04-01T08:00:00Z,28.4330,-82.6670,-9.761,1111122 
COMPS,ioos:station:USF.COMPS:ARP:1,2017-04-01T08:06:00Z,28.4330,-82.6670,-9.747,1111122 
COMPS,ioos:station:USF.COMPS:ARP:1,2017-04-01T08:12:00Z,28.4330,-82.6670,-9.733,1111122 
COMPS,ioos:station:USF.COMPS:ARP:1,2017-04-01T08:18:00Z,28.4330,-82.6670,-9.723,1111122 
COMPS,ioos:station:USF.COMPS:ARP:1,2017-04-01T08:24:00Z,28.4330,-82.6670,-9.712,1111122 
COMPS,ioos:station:USF.COMPS:ARP:1,2017-04-01T08:30:00Z,28.4330,-82.6670,-9.699,1111122 
COMPS,ioos:station:USF.COMPS:ARP:1,2017-04-01T08:36:00Z,28.4330,-82.6670,-9.69,1111122 
COMPS,ioos:station:USF.COMPS:ARP:1,2017-04-01T08:42:00Z,28.4330,-82.6670,-9.681,1111122 
COMPS,ioos:station:USF.COMPS:ARP:1,2017-04-01T08:48:00Z,28.4330,-82.6670,-9.674,1111122 
COMPS,ioos:station:USF.COMPS:ARP:1,2017-04-01T08:54:00Z,28.4330,-82.6670,-9.67,1111122 
COMPS,ioos:station:USF.COMPS:ARP:1,2017-04-01T09:00:00Z,28.4330,-82.6670,-9.668,1111122 
COMPS,ioos:station:USF.COMPS:ARP:1,2017-04-01T09:06:00Z,28.4330,-82.6670,-9.665,1111122 
COMPS,ioos:station:USF.COMPS:ARP:1,2017-04-01T09:12:00Z,28.4330,-82.6670,-9.667,1111122 
COMPS,ioos:station:USF.COMPS:ARP:1,2017-04-01T09:18:00Z,28.4330,-82.6670,-9.669,1111122 
COMPS,ioos:station:USF.COMPS:ARP:1,2017-04-01T09:24:00Z,28.4330,-82.6670,-9.67,1111122 
COMPS,ioos:station:USF.COMPS:ARP:1,2017-04-01T09:30:00Z,28.4330,-82.6670,-9.673,1111122 
COMPS,ioos:station:USF.COMPS:ARP:1,2017-04-01T09:36:00Z,28.4330,-82.6670,-9.679,1111122 
COMPS,ioos:station:USF.COMPS:ARP:1,2017-04-01T09:42:00Z,28.4330,-82.6670,-9.691,1111122 
COMPS,ioos:station:USF.COMPS:ARP:1,2017-04-01T09:48:00Z,28.4330,-82.6670,-9.697,1111122 
COMPS,ioos:station:USF.COMPS:ARP:1,2017-04-01T09:54:00Z,28.4330,-82.6670,-9.705,1111122 
COMPS,ioos:station:USF.COMPS:ARP:1,2017-04-01T10:00:00Z,28.4330,-82.6670,-9.72,1111122 
COMPS,ioos:station:USF.COMPS:ARP:1,2017-04-01T10:06:00Z,28.4330,-82.6670,-9.722,1111122 
COMPS,ioos:station:USF.COMPS:ARP:1,2017-04-01T10:12:00Z,28.4330,-82.6670,-9.729,1111122 
COMPS,ioos:station:USF.COMPS:ARP:1,2017-04-01T10:18:00Z,28.4330,-82.6670,-9.734,1111122 
COMPS,ioos:station:USF.COMPS:ARP:1,2017-04-01T10:24:00Z,28.4330,-82.6670,-9.732,1111122 
COMPS,ioos:station:USF.COMPS:ARP:1,2017-04-01T10:30:00Z,28.4330,-82.6670,-9.732,1111122 
COMPS,ioos:station:USF.COMPS:ARP:1,2017-04-01T10:36:00Z,28.4330,-82.6670,-9.729,1111122 
COMPS,ioos:station:USF.COMPS:ARP:1,2017-04-01T10:42:00Z,28.4330,-82.6670,-9.735,1111122 
COMPS,ioos:station:USF.COMPS:ARP:1,2017-04-01T10:48:00Z,28.4330,-82.6670,-9.741,1111122 
COMPS,ioos:station:USF.COMPS:ARP:1,2017-04-01T10:54:00Z,28.4330,-82.6670,-9.753,1111122 
COMPS,ioos:station:USF.COMPS:ARP:1,2017-04-01T11:00:00Z,28.4330,-82.6670,-9.765,1111122 
COMPS,ioos:station:USF.COMPS:ARP:1,2017-04-01T11:06:00Z,28.4330,-82.6670,-9.777,1111122 
COMPS,ioos:station:USF.COMPS:ARP:1,2017-04-01T11:12:00Z,28.4330,-82.6670,-9.789,1111122 
COMPS,ioos:station:USF.COMPS:ARP:1,2017-04-01T11:18:00Z,28.4330,-82.6670,-9.799,1111122 
COMPS,ioos:station:USF.COMPS:ARP:1,2017-04-01T11:24:00Z,28.4330,-82.6670,-9.812,1111122 
COMPS,ioos:station:USF.COMPS:ARP:1,2017-04-01T11:30:00Z,28.4330,-82.6670,-9.823,1111122 
COMPS,ioos:station:USF.COMPS:ARP:1,2017-04-01T11:36:00Z,28.4330,-82.6670,-9.832,1111122 
COMPS,ioos:station:USF.COMPS:ARP:1,2017-04-01T11:42:00Z,28.4330,-82.6670,-9.843,1111122 
COMPS,ioos:station:USF.COMPS:ARP:1,2017-04-01T11:48:00Z,28.4330,-82.6670,-9.854,1111122 
COMPS,ioos:station:USF.COMPS:ARP:1,2017-04-01T11:54:00Z,28.4330,-82.6670,-9.864,1111122 
COMPS,ioos:station:USF.COMPS:ARP:1,2017-04-01T12:00:00Z,28.4330,-82.6670,-9.873,1111122 
COMPS,ioos:station:USF.COMPS:ARP:1,2017-04-01T12:06:00Z,28.4330,-82.6670,-9.886,1111122 
COMPS,ioos:station:USF.COMPS:ARP:1,2017-04-01T12:12:00Z,28.4330,-82.6670,-9.898,1111122 
COMPS,ioos:station:USF.COMPS:ARP:1,2017-04-01T12:18:00Z,28.4330,-82.6670,-9.911,1111122 
COMPS,ioos:station:USF.COMPS:ARP:1,2017-04-01T12:24:00Z,28.4330,-82.6670,-9.924,1111122 
COMPS,ioos:station:USF.COMPS:ARP:1,2017-04-01T12:30:00Z,28.4330,-82.6670,-9.937,1111122 
COMPS,ioos:station:USF.COMPS:ARP:1,2017-04-01T12:36:00Z,28.4330,-82.6670,-9.952,1111122 
COMPS,ioos:station:USF.COMPS:ARP:1,2017-04-01T12:42:00Z,28.4330,-82.6670,-9.964,1111122 
COMPS,ioos:station:USF.COMPS:ARP:1,2017-04-01T12:48:00Z,28.4330,-82.6670,-9.98,1111122 
COMPS,ioos:station:USF.COMPS:ARP:1,2017-04-01T12:54:00Z,28.4330,-82.6670,-9.992,1111122 
COMPS,ioos:station:USF.COMPS:ARP:1,2017-04-01T17:06:00Z,28.4330,-82.6670,-9.992,1111122 
COMPS,ioos:station:USF.COMPS:ARP:1,2017-04-01T17:12:00Z,28.4330,-82.6670,-9.976,1111122 
COMPS,ioos:station:USF.COMPS:ARP:1,2017-04-01T17:18:00Z,28.4330,-82.6670,-9.958,1111122 
COMPS,ioos:station:USF.COMPS:ARP:1,2017-04-01T17:24:00Z,28.4330,-82.6670,-9.94,1111122 
COMPS,ioos:station:USF.COMPS:ARP:1,2017-04-01T17:30:00Z,28.4330,-82.6670,-9.923,1111122 
COMPS,ioos:station:USF.COMPS:ARP:1,2017-04-01T17:36:00Z,28.4330,-82.6670,-9.907,1111122 
COMPS,ioos:station:USF.COMPS:ARP:1,2017-04-01T17:42:00Z,28.4330,-82.6670,-9.892,1111122 
COMPS,ioos:station:USF.COMPS:ARP:1,2017-04-01T17:48:00Z,28.4330,-82.6670,-9.877,1111122 
COMPS,ioos:station:USF.COMPS:ARP:1,2017-04-01T17:54:00Z,28.4330,-82.6670,-9.862,1111122 
COMPS,ioos:station:USF.COMPS:ARP:1,2017-04-01T18:00:00Z,28.4330,-82.6670,-9.844,1111122 
COMPS,ioos:station:USF.COMPS:ARP:1,2017-04-01T18:06:00Z,28.4330,-82.6670,-9.827,1111122 
COMPS,ioos:station:USF.COMPS:ARP:1,2017-04-01T18:12:00Z,28.4330,-82.6670,-9.812,1111122 
COMPS,ioos:station:USF.COMPS:ARP:1,2017-04-01T18:18:00Z,28.4330,-82.6670,-9.795,1111122 
COMPS,ioos:station:USF.COMPS:ARP:1,2017-04-01T18:24:00Z,28.4330,-82.6670,-9.777,1111122 
COMPS,ioos:station:USF.COMPS:ARP:1,2017-04-01T18:30:00Z,28.4330,-82.6670,-9.759,1111122 
COMPS,ioos:station:USF.COMPS:ARP:1,2017-04-01T18:36:00Z,28.4330,-82.6670,-9.741,1111122 
COMPS,ioos:station:USF.COMPS:ARP:1,2017-04-01T18:42:00Z,28.4330,-82.6670,-9.724,1111122 
COMPS,ioos:station:USF.COMPS:ARP:1,2017-04-01T18:48:00Z,28.4330,-82.6670,-9.708,1111122 
COMPS,ioos:station:USF.COMPS:ARP:1,2017-04-01T18:54:00Z,28.4330,-82.6670,-9.69,1111122 
COMPS,ioos:station:USF.COMPS:ARP:1,2017-04-01T19:00:00Z,28.4330,-82.6670,-9.671,1111122 
COMPS,ioos:station:USF.COMPS:ARP:1,2017-04-01T19:06:00Z,28.4330,-82.6670,-9.658,1111122 
COMPS,ioos:station:USF.COMPS:ARP:1,2017-04-01T19:12:00Z,28.4330,-82.6670,-9.644,1111122 
COMPS,ioos:station:USF.COMPS:ARP:1,2017-04-01T19:18:00Z,28.4330,-82.6670,-9.629,1111122 
COMPS,ioos:station:USF.COMPS:ARP:1,2017-04-01T19:24:00Z,28.4330,-82.6670,-9.615,1111122 
COMPS,ioos:station:USF.COMPS:ARP:1,2017-04-01T19:30:00Z,28.4330,-82.6670,-9.599,1111122 
COMPS,ioos:station:USF.COMPS:ARP:1,2017-04-01T19:36:00Z,28.4330,-82.6670,-9.588,1111122 
COMPS,ioos:station:USF.COMPS:ARP:1,2017-04-01T19:42:00Z,28.4330,-82.6670,-9.572,1111122 
COMPS,ioos:station:USF.COMPS:ARP:1,2017-04-01T19:48:00Z,28.4330,-82.6670,-9.562,1111122 
COMPS,ioos:station:USF.COMPS:ARP:1,2017-04-01T19:54:00Z,28.4330,-82.6670,-9.552,1111122 
COMPS,ioos:station:USF.COMPS:ARP:1,2017-04-01T20:00:00Z,28.4330,-82.6670,-9.544,1111122 
COMPS,ioos:station:USF.COMPS:ARP:1,2017-04-01T20:06:00Z,28.4330,-82.6670,-9.536,1111122 
COMPS,ioos:station:USF.COMPS:ARP:1,2017-04-01T20:12:00Z,28.4330,-82.6670,-9.53,1111122 
COMPS,ioos:station:USF.COMPS:ARP:1,2017-04-01T20:18:00Z,28.4330,-82.6670,-9.525,1111122 
COMPS,ioos:station:USF.COMPS:ARP:1,2017-04-01T20:24:00Z,28.4330,-82.6670,-9.52,1111122 
COMPS,ioos:station:USF.COMPS:ARP:1,2017-04-01T20:30:00Z,28.4330,-82.6670,-9.519,1111122 
COMPS,ioos:station:USF.COMPS:ARP:1,2017-04-01T20:36:00Z,28.4330,-82.6670,-9.519,1111122 
COMPS,ioos:station:USF.COMPS:ARP:1,2017-04-01T20:42:00Z,28.4330,-82.6670,-9.518,1111122 
COMPS,ioos:station:USF.COMPS:ARP:1,2017-04-01T20:48:00Z,28.4330,-82.6670,-9.515,1111122 
COMPS,ioos:station:USF.COMPS:ARP:1,2017-04-01T20:54:00Z,28.4330,-82.6670,-9.514,1111122 
COMPS,ioos:station:USF.COMPS:ARP:1,2017-04-01T21:00:00Z,28.4330,-82.6670,-9.515,1111122 
COMPS,ioos:station:USF.COMPS:ARP:1,2017-04-01T21:06:00Z,28.4330,-82.6670,-9.517,1111122 
COMPS,ioos:station:USF.COMPS:ARP:1,2017-04-01T21:12:00Z,28.4330,-82.6670,-9.524,1111122 
COMPS,ioos:station:USF.COMPS:ARP:1,2017-04-01T21:18:00Z,28.4330,-82.6670,-9.531,1111122 
COMPS,ioos:station:USF.COMPS:ARP:1,2017-04-01T21:24:00Z,28.4330,-82.6670,-9.541,1111122 
COMPS,ioos:station:USF.COMPS:ARP:1,2017-04-01T21:30:00Z,28.4330,-82.6670,-9.554,1111122 
COMPS,ioos:station:USF.COMPS:ARP:1,2017-04-01T21:36:00Z,28.4330,-82.6670,-9.569,1111122 
COMPS,ioos:station:USF.COMPS:ARP:1,2017-04-01T21:42:00Z,28.4330,-82.6670,-9.582,1111122 
COMPS,ioos:station:USF.COMPS:ARP:1,2017-04-01T21:48:00Z,28.4330,-82.6670,-9.6,1111122 
COMPS,ioos:station:USF.COMPS:ARP:1,2017-04-01T21:54:00Z,28.4330,-82.6670,-9.618,1111122 
COMPS,ioos:station:USF.COMPS:ARP:1,2017-04-01T22:00:00Z,28.4330,-82.6670,-9.631,1111122 
COMPS,ioos:station:USF.COMPS:ARP:1,2017-04-01T22:06:00Z,28.4330,-82.6670,-9.641,1111122 
COMPS,ioos:station:USF.COMPS:ARP:1,2017-04-01T22:12:00Z,28.4330,-82.6670,-9.654,1111122 
COMPS,ioos:station:USF.COMPS:ARP:1,2017-04-01T22:18:00Z,28.4330,-82.6670,-9.663,1111122 
COMPS,ioos:station:USF.COMPS:ARP:1,2017-04-01T22:24:00Z,28.4330,-82.6670,-9.672,1111122 
COMPS,ioos:station:USF.COMPS:ARP:1,2017-04-01T22:30:00Z,28.4330,-82.6670,-9.685,1111122 
COMPS,ioos:station:USF.COMPS:ARP:1,2017-04-01T22:36:00Z,28.4330,-82.6670,-9.697,1111122 
COMPS,ioos:station:USF.COMPS:ARP:1,2017-04-01T22:42:00Z,28.4330,-82.6670,-9.71,1111122 
COMPS,ioos:station:USF.COMPS:ARP:1,2017-04-01T22:48:00Z,28.4330,-82.6670,-9.721,1111122 
COMPS,ioos:station:USF.COMPS:ARP:1,2017-04-01T22:54:00Z,28.4330,-82.6670,-9.737,1111122 
COMPS,ioos:station:USF.COMPS:ARP:1,2017-04-01T23:00:00Z,28.4330,-82.6670,-9.749,1111122 
COMPS,ioos:station:USF.COMPS:ARP:1,2017-04-01T23:06:00Z,28.4330,-82.6670,-9.759,1111122 
COMPS,ioos:station:USF.COMPS:ARP:1,2017-04-01T23:12:00Z,28.4330,-82.6670,-9.774,1111122 
COMPS,ioos:station:USF.COMPS:ARP:1,2017-04-01T23:18:00Z,28.4330,-82.6670,-9.789,1111122 
COMPS,ioos:station:USF.COMPS:ARP:1,2017-04-01T23:24:00Z,28.4330,-82.6670,-9.803,1111122 
COMPS,ioos:station:USF.COMPS:ARP:1,2017-04-01T23:30:00Z,28.4330,-82.6670,-9.818,1111122 
COMPS,ioos:station:USF.COMPS:ARP:1,2017-04-01T23:36:00Z,28.4330,-82.6670,-9.833,1111122 
COMPS,ioos:station:USF.COMPS:ARP:1,2017-04-01T23:42:00Z,28.4330,-82.6670,-9.85,1111122 
COMPS,ioos:station:USF.COMPS:ARP:1,2017-04-01T23:48:00Z,28.4330,-82.6670,-9.869,1111122 
COMPS,ioos:station:USF.COMPS:ARP:1,2017-04-01T23:54:00Z,28.4330,-82.6670,-9.885,1111122 
COMPS,ioos:station:USF.COMPS:ARP:1,2017-04-02T00:00:00Z,28.4330,-82.6670,-9.901,1111122 
COMPS,ioos:station:USF.COMPS:ARP:1,2017-04-02T00:06:00Z,28.4330,-82.6670,-9.919,1111122 
COMPS,ioos:station:USF.COMPS:ARP:1,2017-04-02T00:12:00Z,28.4330,-82.6670,-9.934,1111122 
COMPS,ioos:station:USF.COMPS:ARP:1,2017-04-02T00:18:00Z,28.4330,-82.6670,-9.952,1111122 
COMPS,ioos:station:USF.COMPS:ARP:1,2017-04-02T00:24:00Z,28.4330,-82.6670,-9.97,1111122 
COMPS,ioos:station:USF.COMPS:ARP:1,2017-04-02T00:30:00Z,28.4330,-82.6670,-9.99,1111122 
COMPS,ioos:station:USF.COMPS:ARP:1,2017-04-02T09:18:00Z,28.4330,-82.6670,-9.984,1111122 
COMPS,ioos:station:USF.COMPS:ARP:1,2017-04-02T09:24:00Z,28.4330,-82.6670,-9.969,1111122 
COMPS,ioos:station:USF.COMPS:ARP:1,2017-04-02T09:30:00Z,28.4330,-82.6670,-9.953,1111122 
COMPS,ioos:station:USF.COMPS:ARP:1,2017-04-02T09:36:00Z,28.4330,-82.6670,-9.94,1111122 
COMPS,ioos:station:USF.COMPS:ARP:1,2017-04-02T09:42:00Z,28.4330,-82.6670,-9.928,1111122 
COMPS,ioos:station:USF.COMPS:ARP:1,2017-04-02T09:48:00Z,28.4330,-82.6670,-9.917,1111122 
COMPS,ioos:station:USF.COMPS:ARP:1,2017-04-02T09:54:00Z,28.4330,-82.6670,-9.908,1111122 
COMPS,ioos:station:USF.COMPS:ARP:1,2017-04-02T10:00:00Z,28.4330,-82.6670,-9.899,1111122 
COMPS,ioos:station:USF.COMPS:ARP:1,2017-04-02T10:06:00Z,28.4330,-82.6670,-9.892,1111122 
COMPS,ioos:station:USF.COMPS:ARP:1,2017-04-02T10:12:00Z,28.4330,-82.6670,-9.886,1111122 
COMPS,ioos:station:USF.COMPS:ARP:1,2017-04-02T10:18:00Z,28.4330,-82.6670,-9.879,1111122 
COMPS,ioos:station:USF.COMPS:ARP:1,2017-04-02T10:24:00Z,28.4330,-82.6670,-9.873,1111122 
COMPS,ioos:station:USF.COMPS:ARP:1,2017-04-02T10:30:00Z,28.4330,-82.6670,-9.868,1111122 
COMPS,ioos:station:USF.COMPS:ARP:1,2017-04-02T10:36:00Z,28.4330,-82.6670,-9.867,1111122 
COMPS,ioos:station:USF.COMPS:ARP:1,2017-04-02T10:42:00Z,28.4330,-82.6670,-9.864,1111122 
COMPS,ioos:station:USF.COMPS:ARP:1,2017-04-02T10:48:00Z,28.4330,-82.6670,-9.868,1111122 
COMPS,ioos:station:USF.COMPS:ARP:1,2017-04-02T10:54:00Z,28.4330,-82.6670,-9.877,1111122 
COMPS,ioos:station:USF.COMPS:ARP:1,2017-04-02T11:00:00Z,28.4330,-82.6670,-9.883,1111122 
COMPS,ioos:station:USF.COMPS:ARP:1,2017-04-02T11:06:00Z,28.4330,-82.6670,-9.889,1111122 
COMPS,ioos:station:USF.COMPS:ARP:1,2017-04-02T11:12:00Z,28.4330,-82.6670,-9.894,1111122 
COMPS,ioos:station:USF.COMPS:ARP:1,2017-04-02T11:18:00Z,28.4330,-82.6670,-9.898,1111122 
COMPS,ioos:station:USF.COMPS:ARP:1,2017-04-02T11:24:00Z,28.4330,-82.6670,-9.898,1111122 
COMPS,ioos:station:USF.COMPS:ARP:1,2017-04-02T11:30:00Z,28.4330,-82.6670,-9.911,1111122 
COMPS,ioos:station:USF.COMPS:ARP:1,2017-04-02T11:36:00Z,28.4330,-82.6670,-9.919,1111122 
COMPS,ioos:station:USF.COMPS:ARP:1,2017-04-02T11:42:00Z,28.4330,-82.6670,-9.933,1111122 
COMPS,ioos:station:USF.COMPS:ARP:1,2017-04-02T11:48:00Z,28.4330,-82.6670,-9.943,1111122 
COMPS,ioos:station:USF.COMPS:ARP:1,2017-04-02T11:54:00Z,28.4330,-82.6670,-9.948,1111122 
COMPS,ioos:station:USF.COMPS:ARP:1,2017-04-02T12:00:00Z,28.4330,-82.6670,-9.958,1111122 
COMPS,ioos:station:USF.COMPS:ARP:1,2017-04-02T12:06:00Z,28.4330,-82.6670,-9.966,1111122 
COMPS,ioos:station:USF.COMPS:ARP:1,2017-04-02T12:12:00Z,28.4330,-82.6670,-9.968,1111122 
COMPS,ioos:station:USF.COMPS:ARP:1,2017-04-02T12:18:00Z,28.4330,-82.6670,-9.976,1111122 
COMPS,ioos:station:USF.COMPS:ARP:1,2017-04-02T12:24:00Z,28.4330,-82.6670,-9.986,1111122 
COMPS,ioos:station:USF.COMPS:ARP:1,2017-04-02T12:30:00Z,28.4330,-82.6670,-9.993,1111122 
COMPS,ioos:station:USF.COMPS:ARP:1,2017-04-02T17:36:00Z,28.4330,-82.6670,-9.993,1111122 
COMPS,ioos:station:USF.COMPS:ARP:1,2017-04-02T17:42:00Z,28.4330,-82.6670,-9.979,1111122 
COMPS,ioos:station:USF.COMPS:ARP:1,2017-04-02T17:48:00Z,28.4330,-82.6670,-9.964,1111122 
COMPS,ioos:station:USF.COMPS:ARP:1,2017-04-02T17:54:00Z,28.4330,-82.6670,-9.952,1111122 
COMPS,ioos:station:USF.COMPS:ARP:1,2017-04-02T18:00:00Z,28.4330,-82.6670,-9.936,1111122 
COMPS,ioos:station:USF.COMPS:ARP:1,2017-04-02T18:06:00Z,28.4330,-82.6670,-9.924,1111122 
COMPS,ioos:station:USF.COMPS:ARP:1,2017-04-02T18:12:00Z,28.4330,-82.6670,-9.91,1111122 
COMPS,ioos:station:USF.COMPS:ARP:1,2017-04-02T18:18:00Z,28.4330,-82.6670,-9.896,1111122 
COMPS,ioos:station:USF.COMPS:ARP:1,2017-04-02T18:24:00Z,28.4330,-82.6670,-9.882,1111122 
COMPS,ioos:station:USF.COMPS:ARP:1,2017-04-02T18:30:00Z,28.4330,-82.6670,-9.865,1111122 
COMPS,ioos:station:USF.COMPS:ARP:1,2017-04-02T18:36:00Z,28.4330,-82.6670,-9.848,1111122 
COMPS,ioos:station:USF.COMPS:ARP:1,2017-04-02T18:42:00Z,28.4330,-82.6670,-9.832,1111122 
COMPS,ioos:station:USF.COMPS:ARP:1,2017-04-02T18:48:00Z,28.4330,-82.6670,-9.816,1111122 
COMPS,ioos:station:USF.COMPS:ARP:1,2017-04-02T18:54:00Z,28.4330,-82.6670,-9.801,1111122 
COMPS,ioos:station:USF.COMPS:ARP:1,2017-04-02T19:00:00Z,28.4330,-82.6670,-9.788,1111122 
COMPS,ioos:station:USF.COMPS:ARP:1,2017-04-02T19:06:00Z,28.4330,-82.6670,-9.772,1111122 
COMPS,ioos:station:USF.COMPS:ARP:1,2017-04-02T19:12:00Z,28.4330,-82.6670,-9.76,1111122 
COMPS,ioos:station:USF.COMPS:ARP:1,2017-04-02T19:18:00Z,28.4330,-82.6670,-9.745,1111122 
COMPS,ioos:station:USF.COMPS:ARP:1,2017-04-02T19:24:00Z,28.4330,-82.6670,-9.732,1111122 
COMPS,ioos:station:USF.COMPS:ARP:1,2017-04-02T19:30:00Z,28.4330,-82.6670,-9.719,1111122 
COMPS,ioos:station:USF.COMPS:ARP:1,2017-04-02T19:36:00Z,28.4330,-82.6670,-9.704,1111122 
COMPS,ioos:station:USF.COMPS:ARP:1,2017-04-02T19:42:00Z,28.4330,-82.6670,-9.687,1111122 
COMPS,ioos:station:USF.COMPS:ARP:1,2017-04-02T19:48:00Z,28.4330,-82.6670,-9.672,1111122 
COMPS,ioos:station:USF.COMPS:ARP:1,2017-04-02T19:54:00Z,28.4330,-82.6670,-9.657,1111122 
COMPS,ioos:station:USF.COMPS:ARP:1,2017-04-02T20:00:00Z,28.4330,-82.6670,-9.645,1111122 
COMPS,ioos:station:USF.COMPS:ARP:1,2017-04-02T20:06:00Z,28.4330,-82.6670,-9.635,1111122 
COMPS,ioos:station:USF.COMPS:ARP:1,2017-04-02T20:12:00Z,28.4330,-82.6670,-9.621,1111122 
COMPS,ioos:station:USF.COMPS:ARP:1,2017-04-02T20:18:00Z,28.4330,-82.6670,-9.609,1111122 
COMPS,ioos:station:USF.COMPS:ARP:1,2017-04-02T20:24:00Z,28.4330,-82.6670,-9.599,1111122 
COMPS,ioos:station:USF.COMPS:ARP:1,2017-04-02T20:30:00Z,28.4330,-82.6670,-9.59,1111122 
COMPS,ioos:station:USF.COMPS:ARP:1,2017-04-02T20:36:00Z,28.4330,-82.6670,-9.58,1111122 
COMPS,ioos:station:USF.COMPS:ARP:1,2017-04-02T20:42:00Z,28.4330,-82.6670,-9.574,1111122 
COMPS,ioos:station:USF.COMPS:ARP:1,2017-04-02T20:48:00Z,28.4330,-82.6670,-9.57,1111122 
COMPS,ioos:station:USF.COMPS:ARP:1,2017-04-02T20:54:00Z,28.4330,-82.6670,-9.565,1111122 
COMPS,ioos:station:USF.COMPS:ARP:1,2017-04-02T21:00:00Z,28.4330,-82.6670,-9.566,1111122 
COMPS,ioos:station:USF.COMPS:ARP:1,2017-04-02T21:06:00Z,28.4330,-82.6670,-9.564,1111122 
COMPS,ioos:station:USF.COMPS:ARP:1,2017-04-02T21:12:00Z,28.4330,-82.6670,-9.561,1111122 
COMPS,ioos:station:USF.COMPS:ARP:1,2017-04-02T21:18:00Z,28.4330,-82.6670,-9.564,1111122 
COMPS,ioos:station:USF.COMPS:ARP:1,2017-04-02T21:24:00Z,28.4330,-82.6670,-9.575,1111122 
COMPS,ioos:station:USF.COMPS:ARP:1,2017-04-02T21:30:00Z,28.4330,-82.6670,-9.578,1111122 
COMPS,ioos:station:USF.COMPS:ARP:1,2017-04-02T21:36:00Z,28.4330,-82.6670,-9.578,1111122 
COMPS,ioos:station:USF.COMPS:ARP:1,2017-04-02T21:42:00Z,28.4330,-82.6670,-9.589,1111122 
COMPS,ioos:station:USF.COMPS:ARP:1,2017-04-02T21:48:00Z,28.4330,-82.6670,-9.6,1111122 
COMPS,ioos:station:USF.COMPS:ARP:1,2017-04-02T21:54:00Z,28.4330,-82.6670,-9.603,1111122 
COMPS,ioos:station:USF.COMPS:ARP:1,2017-04-02T22:00:00Z,28.4330,-82.6670,-9.61,1111122 
COMPS,ioos:station:USF.COMPS:ARP:1,2017-04-02T22:06:00Z,28.4330,-82.6670,-9.601,1111122 
COMPS,ioos:station:USF.COMPS:ARP:1,2017-04-02T22:12:00Z,28.4330,-82.6670,-9.606,1111122 
COMPS,ioos:station:USF.COMPS:ARP:1,2017-04-02T22:18:00Z,28.4330,-82.6670,-9.605,1111122 
COMPS,ioos:station:USF.COMPS:ARP:1,2017-04-02T22:24:00Z,28.4330,-82.6670,-9.602,1111122 
COMPS,ioos:station:USF.COMPS:ARP:1,2017-04-02T22:30:00Z,28.4330,-82.6670,-9.598,1111122 
COMPS,ioos:station:USF.COMPS:ARP:1,2017-04-02T22:36:00Z,28.4330,-82.6670,-9.606,1111122 
COMPS,ioos:station:USF.COMPS:ARP:1,2017-04-02T22:42:00Z,28.4330,-82.6670,-9.618,1111122 
COMPS,ioos:station:USF.COMPS:ARP:1,2017-04-02T22:48:00Z,28.4330,-82.6670,-9.63,1111122 
COMPS,ioos:station:USF.COMPS:ARP:1,2017-04-02T22:54:00Z,28.4330,-82.6670,-9.647,1111122 
COMPS,ioos:station:USF.COMPS:ARP:1,2017-04-02T23:00:00Z,28.4330,-82.6670,-9.66,1111122 
COMPS,ioos:station:USF.COMPS:ARP:1,2017-04-02T23:06:00Z,28.4330,-82.6670,-9.672,1111122 
COMPS,ioos:station:USF.COMPS:ARP:1,2017-04-02T23:12:00Z,28.4330,-82.6670,-9.69,1111122 
COMPS,ioos:station:USF.COMPS:ARP:1,2017-04-02T23:18:00Z,28.4330,-82.6670,-9.703,1111122 
COMPS,ioos:station:USF.COMPS:ARP:1,2017-04-02T23:24:00Z,28.4330,-82.6670,-9.715,1111122 
COMPS,ioos:station:USF.COMPS:ARP:1,2017-04-02T23:30:00Z,28.4330,-82.6670,-9.73,1111122 
COMPS,ioos:station:USF.COMPS:ARP:1,2017-04-02T23:36:00Z,28.4330,-82.6670,-9.744,1111122 
COMPS,ioos:station:USF.COMPS:ARP:1,2017-04-02T23:42:00Z,28.4330,-82.6670,-9.752,1111122 
COMPS,ioos:station:USF.COMPS:ARP:1,2017-04-02T23:48:00Z,28.4330,-82.6670,-9.761,1111122 
COMPS,ioos:station:USF.COMPS:ARP:1,2017-04-02T23:54:00Z,28.4330,-82.6670,-9.776,1111122 
COMPS,ioos:station:USF.COMPS:ARP:1,2017-04-03T00:00:00Z,28.4330,-82.6670,-9.789,1111122 
COMPS,ioos:station:USF.COMPS:ARP:1,2017-04-03T00:06:00Z,28.4330,-82.6670,-9.8,1111122 
COMPS,ioos:station:USF.COMPS:ARP:1,2017-04-03T00:12:00Z,28.4330,-82.6670,-9.815,1111122 
COMPS,ioos:station:USF.COMPS:ARP:1,2017-04-03T00:18:00Z,28.4330,-82.6670,-9.827,1111122 
COMPS,ioos:station:USF.COMPS:ARP:1,2017-04-03T00:24:00Z,28.4330,-82.6670,-9.843,1111122 
COMPS,ioos:station:USF.COMPS:ARP:1,2017-04-03T00:30:00Z,28.4330,-82.6670,-9.859,1111122 
COMPS,ioos:station:USF.COMPS:ARP:1,2017-04-03T00:36:00Z,28.4330,-82.6670,-9.876,1111122 
COMPS,ioos:station:USF.COMPS:ARP:1,2017-04-03T00:42:00Z,28.4330,-82.6670,-9.893,1111122 
COMPS,ioos:station:USF.COMPS:ARP:1,2017-04-03T00:48:00Z,28.4330,-82.6670,-9.906,1111122 
COMPS,ioos:station:USF.COMPS:ARP:1,2017-04-03T00:54:00Z,28.4330,-82.6670,-9.923,1111122 
COMPS,ioos:station:USF.COMPS:ARP:1,2017-04-03T01:00:00Z,28.4330,-82.6670,-9.938,1111122 
COMPS,ioos:station:USF.COMPS:ARP:1,2017-04-03T01:06:00Z,28.4330,-82.6670,-9.957,1111122 
COMPS,ioos:station:USF.COMPS:ARP:1,2017-04-03T01:12:00Z,28.4330,-82.6670,-9.978,1111122 
COMPS,ioos:station:USF.COMPS:ARP:1,2017-04-03T01:18:00Z,28.4330,-82.6670,-9.997,1111122 
COMPS,ioos:station:USF.COMPS:ARP:1,2017-04-03T10:24:00Z,28.4330,-82.6670,-9.998,1111122 
COMPS,ioos:station:USF.COMPS:ARP:1,2017-04-03T10:30:00Z,28.4330,-82.6670,-9.988,1111122 
COMPS,ioos:station:USF.COMPS:ARP:1,2017-04-03T10:36:00Z,28.4330,-82.6670,-9.977,1111122 
COMPS,ioos:station:USF.COMPS:ARP:1,2017-04-03T10:42:00Z,28.4330,-82.6670,-9.969,1111122 
COMPS,ioos:station:USF.COMPS:ARP:1,2017-04-03T10:48:00Z,28.4330,-82.6670,-9.963,1111122 
COMPS,ioos:station:USF.COMPS:ARP:1,2017-04-03T10:54:00Z,28.4330,-82.6670,-9.958,1111122 
COMPS,ioos:station:USF.COMPS:ARP:1,2017-04-03T11:00:00Z,28.4330,-82.6670,-9.951,1111122 
COMPS,ioos:station:USF.COMPS:ARP:1,2017-04-03T11:06:00Z,28.4330,-82.6670,-9.946,1111122 
COMPS,ioos:station:USF.COMPS:ARP:1,2017-04-03T11:12:00Z,28.4330,-82.6670,-9.936,1111122 
COMPS,ioos:station:USF.COMPS:ARP:1,2017-04-03T11:18:00Z,28.4330,-82.6670,-9.928,1111122 
COMPS,ioos:station:USF.COMPS:ARP:1,2017-04-03T11:24:00Z,28.4330,-82.6670,-9.921,1111122 
COMPS,ioos:station:USF.COMPS:ARP:1,2017-04-03T11:30:00Z,28.4330,-82.6670,-9.914,1111122 
COMPS,ioos:station:USF.COMPS:ARP:1,2017-04-03T11:36:00Z,28.4330,-82.6670,-9.907,1111122 
COMPS,ioos:station:USF.COMPS:ARP:1,2017-04-03T11:42:00Z,28.4330,-82.6670,-9.9,1111122 
COMPS,ioos:station:USF.COMPS:ARP:1,2017-04-03T11:48:00Z,28.4330,-82.6670,-9.893,1111122 
COMPS,ioos:station:USF.COMPS:ARP:1,2017-04-03T11:54:00Z,28.4330,-82.6670,-9.89,1111122 